Grosse Ile, MI

4:04 PM EDT on April 24, 2017 (GMT -0400)
Grosse Ile Municipal

Weather History for KONZ - February, 2014

Change the Weather History Date:

Tuesday, February 11, 2014

  Actual Average (KDTW) Record (KDTW)
Temperature  
Mean Temperature 5 °F -  
Max Temperature 15 °F 31 °F 70 °F (1999)
Min Temperature -5 °F 16 °F -10 °F (1885)
Degree Days  
Heating Degree Days 60    
Moisture  
Dew Point 1 °F    
Average Humidity 76    
Maximum Humidity 85    
Minimum Humidity 62    
Precipitation  
Precipitation 0.00 in - - ()
Sea Level Pressure  
Sea Level Pressure 30.44 in    
Wind  
Wind Speed 5 mph (WNW)    
Max Wind Speed 9 mph    
Max Gust Speed -    
Visibility 8 miles    
Events Snow    
Averages and records for this station are not official NWS values.
T = Trace of Precipitation, MM = Missing Value Source: NWS Daily Summary

Daily Weather History Graph

Daily Weather History Graph

Search for Another Location

Airport or City:

Trip Planner

Search our weather history database for the weather conditions in past years. The results will help you decide how hot, cold, wet, or windy it might be!

Date:

Astronomy

Feb. 11, 2014 Rise Set
Actual Time 7:34 AM EST 6:00 PM EST
Civil Twilight 7:05 AM EST 6:29 PM EST
Nautical Twilight 6:32 AM EST 7:02 PM EST
Astronomical Twilight 5:59 AM EST 7:34 PM EST
Moon 3:18 PM EST (2/11) 5:11 AM EST (2/11)
Length of Visible Light 11h 24m
Length of Day
10h 26m
Waxing Gibbous, 90% of the Moon is Illuminated
Feb 11
Waxing Gibbous
Feb 14
Full
Feb 22
Last Quarter
Mar 1
New
Mar 8
First Quarter

Hourly Weather History & Observations

Time (EST) Temp. Windchill Dew Point Humidity Pressure Visibility Wind Dir Wind Speed Gust Speed Precip Events Conditions
12:14 AM 12.2 °F -0.2 °F 1.4 °F 62% 30.35 in 10.0 mi NW 9.2 mph - N/A   Clear
12:34 AM 10.4 °F -0.4 °F 1.4 °F 67% 30.35 in 10.0 mi WNW 6.9 mph - N/A   Clear
12:53 AM 10.4 °F 0.8 °F 1.4 °F 67% 30.35 in 10.0 mi WNW 5.8 mph - N/A   Clear
1:14 AM 10.4 °F -0.4 °F 1.4 °F 67% 30.35 in 10.0 mi WNW 6.9 mph - N/A   Clear
1:34 AM 10.4 °F -0.4 °F 1.4 °F 67% 30.35 in 10.0 mi WNW 6.9 mph - N/A   Clear
1:53 AM 10.4 °F 0.8 °F 1.4 °F 67% 30.36 in 10.0 mi WNW 5.8 mph - N/A   Clear
2:14 AM 8.6 °F 0.1 °F 1.4 °F 73% 30.37 in 10.0 mi WNW 4.6 mph - N/A   Clear
2:34 AM 8.6 °F 2.0 °F 1.4 °F 73% 30.37 in 10.0 mi WNW 3.5 mph - N/A   Clear
2:54 AM 8.6 °F 2.0 °F 1.4 °F 73% 30.37 in 10.0 mi West 3.5 mph - N/A   Clear
3:14 AM 8.6 °F 0.1 °F 1.4 °F 73% 30.37 in 10.0 mi West 4.6 mph - N/A   Clear
3:34 AM 6.8 °F -0.1 °F 1.4 °F 79% 30.37 in 10.0 mi NW 3.5 mph - N/A   Clear
3:54 AM 6.8 °F -0.1 °F 1.4 °F 79% 30.37 in 10.0 mi WNW 3.5 mph - N/A   Clear
4:14 AM 6.8 °F - 1.4 °F 79% 30.37 in 10.0 mi Calm Calm - N/A   Clear
4:34 AM 6.8 °F -2.0 °F 1.4 °F 79% 30.37 in 10.0 mi NW 4.6 mph - N/A   Clear
4:54 AM 6.8 °F -3.5 °F 1.4 °F 79% 30.37 in 10.0 mi NW 5.8 mph - N/A   Clear
5:14 AM 6.8 °F -3.5 °F 1.4 °F 79% 30.38 in 10.0 mi WNW 5.8 mph - N/A   Clear
5:34 AM 6.8 °F -2.0 °F 1.4 °F 79% 30.39 in 10.0 mi WNW 4.6 mph - N/A   Clear
5:54 AM 8.6 °F -1.3 °F 1.4 °F 73% 30.39 in 10.0 mi NW 5.8 mph - N/A   Mostly Cloudy
6:14 AM 8.6 °F -1.3 °F 1.4 °F 73% 30.39 in 10.0 mi WNW 5.8 mph - N/A   Overcast
6:33 AM 6.8 °F -2.0 °F 1.4 °F 79% 30.40 in 10.0 mi WNW 4.6 mph - N/A   Overcast
6:54 AM 6.8 °F -2.0 °F 1.4 °F 79% 30.41 in 10.0 mi WNW 4.6 mph - N/A   Overcast
7:14 AM 8.6 °F 0.1 °F 1.4 °F 73% 30.41 in 10.0 mi WNW 4.6 mph - N/A   Overcast
7:34 AM 8.6 °F 0.1 °F 3.2 °F 79% 30.42 in 7.0 mi WNW 4.6 mph - N/A Snow Light Snow
7:54 AM 8.6 °F -1.3 °F 1.4 °F 73% 30.43 in 10.0 mi NW 5.8 mph - N/A Snow Light Snow
8:14 AM 8.6 °F -1.3 °F 1.4 °F 73% 30.44 in 10.0 mi NW 5.8 mph - N/A   Overcast
8:34 AM 8.6 °F -1.3 °F 3.2 °F 79% 30.45 in 10.0 mi NW 5.8 mph - N/A   Overcast
8:54 AM 10.4 °F 0.8 °F 3.2 °F 73% 30.45 in 10.0 mi NNW 5.8 mph - N/A   Overcast
9:14 AM 10.4 °F -2.4 °F 3.2 °F 73% 30.45 in 10.0 mi NNW 9.2 mph - N/A   Overcast
9:34 AM 10.4 °F -0.4 °F 3.2 °F 73% 30.46 in 2.5 mi NNW 6.9 mph - N/A Snow Light Snow
9:54 AM 10.4 °F -0.4 °F 5.0 °F 79% 30.46 in 2.5 mi NNW 6.9 mph - N/A Snow Light Snow
10:14 AM 10.4 °F 4.0 °F 3.2 °F 73% 30.47 in 2.0 mi North 3.5 mph - N/A Snow Light Snow
10:34 AM 12.2 °F 6.1 °F 3.2 °F 67% 30.48 in 3.0 mi NNW 3.5 mph - N/A Snow Light Snow
10:54 AM 12.2 °F 1.7 °F 6.8 °F 79% 30.48 in 5.0 mi East 6.9 mph - N/A Snow Light Snow
11:14 AM 12.2 °F 2.9 °F 6.8 °F 79% 30.48 in 4.0 mi East 5.8 mph - N/A Snow Light Snow
11:34 AM 12.2 °F 2.9 °F 6.8 °F 79% 30.48 in 5.0 mi East 5.8 mph - N/A Snow Light Snow
11:54 AM 12.2 °F 2.9 °F 6.8 °F 79% 30.48 in 3.0 mi ENE 5.8 mph - N/A Snow Light Snow
12:13 PM 12.2 °F 4.3 °F 6.8 °F 79% 30.47 in 2.5 mi NE 4.6 mph - N/A Snow Light Snow
12:34 PM 12.2 °F 6.1 °F 5.0 °F 73% 30.47 in 4.0 mi East 3.5 mph - N/A   Haze
12:54 PM 14.0 °F - 3.2 °F 62% 30.46 in 7.0 mi Calm Calm - N/A   Overcast
1:14 PM 15.8 °F - 5.0 °F 62% 30.46 in 7.0 mi Calm Calm - N/A   Overcast
1:34 PM 14.0 °F - 5.0 °F 67% 30.46 in 1.5 mi Calm Calm - N/A Snow Light Snow
1:54 PM 14.0 °F 8.2 °F 6.8 °F 73% 30.46 in 1.8 mi East 3.5 mph - N/A Snow Light Snow
2:14 PM 14.0 °F - 5.0 °F 67% 30.46 in 2.0 mi Calm Calm - N/A Snow Light Snow
2:34 PM 12.2 °F 1.7 °F 5.0 °F 73% 30.45 in 7.0 mi South 6.9 mph - N/A Snow Light Snow
2:54 PM 12.2 °F 1.7 °F 6.8 °F 79% 30.45 in 3.0 mi South 6.9 mph - N/A Snow Light Snow
3:14 PM 12.2 °F 2.9 °F 5.0 °F 73% 30.45 in 7.0 mi South 5.8 mph - N/A   Overcast
3:34 PM 12.2 °F 1.7 °F 5.0 °F 73% 30.46 in 7.0 mi South 6.9 mph - N/A Snow Light Snow
3:54 PM 12.2 °F 2.9 °F 5.0 °F 73% 30.46 in 7.0 mi South 5.8 mph - N/A Snow Light Snow
4:14 PM 12.2 °F 1.7 °F 3.2 °F 67% 30.46 in 10.0 mi South 6.9 mph - N/A   Overcast
4:34 PM 10.4 °F -0.4 °F 3.2 °F 73% 30.46 in 10.0 mi South 6.9 mph - N/A   Overcast
4:54 PM 10.4 °F -0.4 °F 3.2 °F 73% 30.46 in 10.0 mi South 6.9 mph - N/A   Overcast
5:14 PM 10.4 °F 0.8 °F 3.2 °F 73% 30.46 in 10.0 mi South 5.8 mph - N/A Snow Light Snow
5:34 PM 8.6 °F -3.7 °F 1.4 °F 73% 30.46 in 10.0 mi South 8.1 mph - N/A   Scattered Clouds
5:54 PM 5.0 °F -5.6 °F -0.4 °F 78% 30.47 in 10.0 mi South 5.8 mph - N/A   Clear
6:14 PM 5.0 °F -6.9 °F -0.4 °F 78% 30.47 in 10.0 mi South 6.9 mph - N/A   Clear
6:34 PM 1.4 °F -8.3 °F -2.2 °F 85% 30.47 in 10.0 mi SSE 4.6 mph - N/A   Scattered Clouds
6:54 PM 1.4 °F - -2.2 °F 85% 30.48 in 10.0 mi Calm Calm - N/A   Overcast
7:14 PM 1.4 °F - -2.2 °F 85% 30.48 in 10.0 mi Calm Calm - N/A   Mostly Cloudy
7:34 PM -0.4 °F -8.3 °F -5.8 °F 78% 30.48 in 10.0 mi SSE 3.5 mph - N/A   Mostly Cloudy
7:54 PM -0.4 °F - -4.0 °F 85% 30.47 in 10.0 mi Calm Calm - N/A   Clear
8:14 PM 1.4 °F - -2.2 °F 85% 30.47 in 10.0 mi Calm Calm - N/A   Clear
8:34 PM -0.4 °F - -5.8 °F 78% 30.47 in 10.0 mi Calm Calm - N/A   Clear
8:54 PM -0.4 °F - -4.0 °F 85% 30.48 in 10.0 mi Calm Calm - N/A   Clear
9:14 PM -2.2 °F - -5.8 °F 85% 30.47 in 10.0 mi Calm Calm - N/A   Clear
9:34 PM -4.0 °F - -7.6 °F 85% 30.46 in 10.0 mi Calm Calm - N/A   Clear
9:54 PM -5.8 °F - -9.4 °F 84% 30.45 in 7.0 mi Calm Calm - N/A   Clear
10:14 PM -4.0 °F - -9.4 °F 78% 30.45 in 10.0 mi Calm Calm - N/A   Clear
10:34 PM -5.8 °F - -11.2 °F 77% 30.47 in 10.0 mi Calm Calm - N/A   Clear
10:54 PM -4.0 °F - -9.4 °F 78% 30.47 in 10.0 mi Calm Calm - N/A   Clear
11:14 PM -5.8 °F - -9.4 °F 84% 30.46 in 10.0 mi Calm Calm - N/A   Clear
11:34 PM -5.8 °F - -9.4 °F 84% 30.46 in 10.0 mi Calm Calm - N/A   Clear
11:55 PM -5.8 °F - -9.4 °F 84% 30.45 in 10.0 mi Calm Calm - N/A   Clear